Regional Weather Roundup
Issued by NWS

Home | Current Version | Previous Version | Graphics & Text | Print | Product List | Glossary On
Versions: 1 2 3 4 5 6 7 8 9 10 11 12 13 14 15 16 17 18 19 20 21 22 23 24 25 26 27 28 29 30 31 32 33 34 35 36 37 38 39 40 41 42 43 44 45 46 47 48 49 50
000
ASUS43 KOAX 221602
RWRNE

WEATHER ROUNDUP FOR NEBRASKA
NATIONAL WEATHER SERVICE OMAHA NE
1100 AM CDT SAT JUL 22 2017

NOTES: SATELLITE DATA IS BEING USED TO AUGMENT CLOUD COVER ABOVE
       12000 FEET.
       "FAIR" INDICATES FEW OR NO CLOUDS BELOW 12,000 FEET WITH NO
       SIGNIFICANT WEATHER AND/OR OBSTRUCTIONS TO VISIBILITY.


NEZ001>004-019>022-054>056-221700-
NEBRASKA PANHANDLE

CITY           SKY/WX    TMP DP  RH WIND       PRES   REMARKS
SCOTTSBLUFF    SUNNY     81  55  40 MISG      30.11S
ALLIANCE       PTSUNNY   81  52  36 SE7       30.10S
CHADRON        PTSUNNY   82  50  32 CALM      30.05R
GORDON         FAIR      83  57  41 SE3       30.07S
KIMBALL        SUNNY     84  50  31 E7        30.19R
SIDNEY         MOSUNNY   79  54  41 E8        30.16R
$$

NEZ057>060-069>072-079>082-221700-
SOUTHWEST NEBRASKA

CITY           SKY/WX    TMP DP  RH WIND       PRES   REMARKS
NORTH PLATTE   CLOUDY    82  68  62 CALM      30.02R
IMPERIAL       CLOUDY    78  59  51 N9        30.08R
LEXINGTON      MOSUNNY   83  70  64 NE7       29.97S
MCCOOK         SUNNY     89  61  38 NE12      30.00R
OGALLALA       CLOUDY    76  62  61 CALM      30.09R
$$

NEZ005>010-023>029-035>040-094-221700-
NORTH CENTRAL NEBRASKA

CITY           SKY/WX    TMP DP  RH WIND       PRES   REMARKS
VALENTINE      CLOUDY    85  59  41 N9        30.01R
AINSWORTH      CLOUDY    76  69  79 NE5       30.01R
BROKEN BOW     PTSUNNY   86  66  51 NE9       29.98R
O`NEILL        CLOUDY    78  76  95 NW6       29.97S FOG
ORD            SUNNY     85  71  63 N6        29.94R HX  90
THEDFORD       CLOUDY    77  68  74 NW3       30.04S
$$

NEZ041-046>049-061>064-073>077-083>087-221700-
SOUTH CENTRAL NEBRASKA

CITY           SKY/WX    TMP DP  RH WIND       PRES   REMARKS
GRAND ISLAND   MOSUNNY   82  76  81 NE10      29.92S
AURORA         PTSUNNY   80  77  91 NE9       29.93R
HASTINGS       MOSUNNY   83  75  77 NE10      29.93S HX  90
HEBRON         SUNNY     90  75  62 N7        29.86F HX 100
HOLDREGE       MOSUNNY   82  69  65 NE14      29.96R
KEARNEY        PTSUNNY   80  73  79 NE17      29.95R
YORK           PTSUNNY   81  77  89 N12       29.91R FOG
$$

NEZ011>018-030>034-042>045-221700-
NORTHEAST NEBRASKA

CITY           SKY/WX    TMP DP  RH WIND       PRES   REMARKS
NORFOLK        CLOUDY    84  72  67 NW8       29.91R
ALBION         MOSUNNY   87  74  66 N10       29.92S HX  95
BLAIR          CLOUDY    81  76  85 NW7       29.87S
FREMONT        CLOUDY    81  76  85 NW7       29.88S
TEKAMAH        CLOUDY    82  75  79 N9        29.86S
WAYNE          CLOUDY    83  81  92 N8        29.91R HX  98
$$

NEZ050>053-065>068-078-088>093-221700-
SOUTHEAST NEBRASKA

CITY           SKY/WX    TMP DP  RH WIND       PRES   REMARKS
LINCOLN        CLOUDY    83  77  82 N10       29.87R HX  92
OMAHA EPPLEY   CLOUDY    82  75  79 N10       29.85R
BEATRICE       SUNNY     91  79  67 N12       29.86R HX 108
NEBRASKA CITY  SUNNY     87  82  84 N10       29.84R HX 105
PLATTSMOUTH    MOSUNNY   85  78  80 NW10      29.85R HAZE    HX  95
$$

NEZ044-045-051>053-067-221700-
OMAHA AREA

CITY           SKY/WX    TMP DP  RH WIND       PRES   REMARKS
OMAHA EPPLEY   CLOUDY    82  75  79 N10       29.85R
BLAIR          CLOUDY    81  76  85 NW7       29.87S
FREMONT        CLOUDY    81  76  85 NW7       29.88S
MILLARD        CLOUDY    83  78  87 NW6       29.86R HX  93
OFFUTT AFB     PTSUNNY   83  77  80 N8        29.84R HX  92
PLATTSMOUTH    MOSUNNY   85  78  80 NW10      29.85R HAZE    HX  95
WAHOO          CLOUDY    80  77  89 N6        29.87S
$$



USA.gov is the U.S. government's official web portal to all federal, state and local government web resources and services.